DMSP 5D-2 F13 DEB, 42320

Orbit data source: Space-Track

DMSP 5D-2 F13 DEB, 42320 is space debris in SSO originally from a launch on Fri, 24 Mar 1995 UTC launched from the Air Force Western Test Range (AFWTR). Debris objects in space refer to the collection of defunct objects orbiting the Earth. Examples of debris include non-operational satellites, rocket bodies, and fragments generated from explosions, collisions, or faulty payload assembly.

Loading next visibility...
Identifier
42320, 1995-015JN
Orbit
SSO
Country
Flag of USUS
Related business
Manufacturer
Unknown
Mission
Spacecraft
Bus & Motor
Unknown
Mass
Unknown
Launch date (UTC)
1995-03-24 (31 years ago)
Launch vehicle
Unknown
Launch site
Air Force Western Test Range (AFWTR)
Object type
Payload
Rocket body
Debris
Shape & HBR
Unknown shape, 0.1 m
Radar Cross Section
Small (<0.1 m²)

Expand to show TLE details & history
Last TLE update: 2 days ago

TLE from 2 days ago
0 DMSP 5D-2 F13 DEB
1 42320U 95015JN  26033.92063373  .00006101  00000-0  18083-2 0  9998
2 42320  98.6353  75.5114 0006365 269.0929  90.9531 14.43684263562806
Epoch: 2026-02-02T22:05Z
TLE epoch observation values (Epoch: 2026-02-02T22:05:42.754Z)
Latitude
-0.00006°
Longitude
-29.02573°
Altitude
749.379 km
Speed
7.48 km/s
True Right ascension
05h 02m 02s
True Declination
0° 00' 00"
Sunlit
Object was in full shadow at epoch
Visualization orbit readout
Latitude
Unknown
Longitude
Unknown
Altitude
Unknown
Speed
Unknown
Apparent Right ascension
Unknown
Apparent Declination
Unknown
Sunlit
N/A
Visualization observer readout
Local Sidereal Time
02:38:07
Azimuth
Unknown
Elevation
Unknown
Doppler factor
Unknown
Orbital elements
Apogee altitude
748.008 km
Perigee altitude
738.942 km
Semi-major axis
7,121.612 km
Eccentricity
0.00064
Inclination
98.6353°
RAAN
75.5114°
Arg. of periapsis
269.0929°
True anomaly
91.02603°
Mean anomaly
90.9531°
Eccentric anomaly
90.98956°
Mean motion
3.6114 °/min
Orbital period
99.68 mins
BSTAR
0.0018083
Loading maneuver chart data...
Computing Atmospheric mass density...

Documentation

Showing up to 5 results
|